CZ-6A DEB

Satellite information

Favourite Embed

Satellite Type and Status

DEBRISIN ORBIT

Key statistics

Satellite CZ-6A DEB at a glance.

Uptime

494

Days in orbit

Revolutions

≈ 14.1

Per day

Orbit

LEO

Low Earth Orbit

Inclination

89.0

Latest

Satellite identification and parameters

Extended collection of information and parameters for CZ-6A DEB.

Object identification

Identified? True

Debris? True

Object name: CZ-6A DEB

International designator: 2024-140YG

Object number (NORAD): 61415

Object ID (CCSDS): 61415

Country: PEOPLES REPUBLIC OF CHINA (PRC)

Current information (Y/N): Y

RCS size: SMALL

Orbital parameters

Period: 102.423 minutes

Inclination: 88.9896 deg

SMA: 7251.441 km

Apoapsis: 963.664 km

Periapsis: 782.947 km

RAAN: 296.5036 deg

Eccentricy: 0.0124608

Argument of periapsis: 136.6193 deg

Mean anomaly: 224.488 deg

Mean motion: 14.05938498 rev/day

Mean motion (dot): 0.00002605 rev/day2

B* drag term: 0.0014757 1/REarth

Two-line elements (TLE)

Creation date: Dec. 12, 2025, 7:26 a.m.

Reference frame: TEME

Reference center: EARTH

Epoch: Dec. 11, 2025, 8 p.m. UTC

TLE line 0: 0 CZ-6A DEB

TLE line 1: 1 61415U 24140YG 25345.83355106 .00002605 00000-0 14757-2 0 9997

TLE line 2: 2 61415 88.9896 296.5036 0124608 136.6193 224.4880 14.05938498 64399

Live tracking on map

Real-time ground track for satellite CZ-6A DEB.

In-orbit conjunctions

A list of the most updated potential collisions computed for object CZ-6A DEB.

Target Orbit TCA Probability of collision Miss distance Type
CZ-6A R/B SSO 2025-04-30 13:47:01 0.0001122795 817.0 (m) ROCKET BODY
FENGYUN 1C DEB SSO 2025-02-20 14:03:38 0.0001706706 103.0 (m) DEBRIS
COSMOS 2251 DEB LEO 2024-10-07 22:03:52 0.0001251009 639.0 (m) DEBRIS

Associated space launch

18 Low Earth Orbit communication satellites with Ku, Q and V band payloads for the G60 constellation operated by Shanghai Spacecom Satellite Technology (SSST) with funding backed by the Shanghai local government. Initial constellation will consist of 1296 satellites by 2027 with long term plans to expand it to 12000 satellites.

CZ-6A DEB was lifted into orbit during the mission ‘Long March 6A | G60 Polar Group 01’, on board a Long March 6A space rocket.

The launch took place on Aug. 6, 2024, 6:42 a.m. from Launch Complex 9A.

For more information about the launch, click the button.

Launch to space Long March 6A | G60 Polar Group 01
Long March 6A | G60 Polar Group 01

Agency: N/A

Status: Launch Successful

Launch date: Aug. 6, 2024, 6:42 a.m. UTC

Rocket: Long March 6A

Launch pad: Launch Complex 9A

Location: Taiyuan Satellite Launch Center, People's Republic of China

...

Latest news about this satellite

News about space launch
Brightness of first Chinese broadband constellation satellites alarms astronomers

The first satellites of a Chinese broadband constellation are significantly brighter than those of Western systems, posing a new challenge for astronomers.

News about space launch
Chinese rocket stage breaks up into cloud of more than 700 pieces of space debris

HELSINKI — A Chinese Long March 6A rocket’s upper stage has fragmented into a cloud of over 700 pieces of space debris, adding to concerns about long-term orbital safety. China […]

News about space launch
China's Thousand Sails Megaconstellation Kicks Off with Dangerous Debris Field

China's Thousand Sails Megaconstellation Kicks Off with Dangerous Debris Field


Newsletter sign-up

Weekly statistics, charts and insights to help you stay on top of the space industry.